Flag for Norway Weather past 2 weeks in Halden, Norway

Now
52 °F

Drizzle. Mostly cloudy.


Feels Like: 52 °F
Forecast: 47 / 53 °F
Wind: 2 mph from North

Location: Rygge

Current Time: Oct 20, 2014 at 7:16:20 AM

Latest Report: Oct 20, 2014 at 5:20 AM


Visibility: 6 mi

Pressure: 29.33 "Hg

Humidity: 100%

Dew point: 52 °F

Location of HaldenLocation

Historic Weather in Halden — Graph

°F

Halden temperature yesterday

Maximum temperature yesterday: 55 °F (at 12:20 AM)
Minimum temperature yesterday: 54 °F (at 5:50 AM)
Average temperature yesterday: 55 °F

Past Weeks' High & Low Weather Summary

 TemperatureHumidityPressure
High61 °F (Oct 5, 12:20 PM)100% (Oct 7, 11:50 PM)30.36 "Hg (Oct 7, 11:50 PM)
Low34 °F (Oct 13, 6:50 AM)52% (Oct 5, 2:50 PM)29.30 "Hg (Oct 20, 4:20 AM)
Average48 °F89%29.86 "Hg
* Reported Oct 5 4:20 AM — Oct 20 4:50 AM, Halden, Weather by CustomWeather, © 2014

Note: Actual official high and low records may vary slightly from our data, if they occured in-between our weather recording intervals... More about our weather records

Advertising

Halden weather history for previous 24 hours

 ConditionsComfort  
Time TempWeatherWind HumidityBarometerVisibility
4:50 AM
Oct 20
52 °FMostly cloudy.5 mph100%29.30 "HgN/A
4:20 AM54 °FLow clouds.8 mph94%29.30 "HgN/A
3:50 AM54 °FLow clouds.6 mph94%29.33 "HgN/A
3:20 AM54 °FPassing clouds.3 mph88%29.33 "HgN/A
2:50 AM54 °FPassing clouds.1 mph88%29.33 "HgN/A
2:20 AM54 °FPassing clouds.2 mph88%29.33 "HgN/A
1:50 AM54 °FLow clouds.7 mph94%29.33 "HgN/A
1:20 AM54 °FPassing clouds.5 mph94%29.33 "Hg6 mi
12:50 AM54 °FLow clouds.7 mph94%29.36 "Hg6 mi
12:20 AM54 °FLow clouds.7 mph94%29.36 "Hg5 mi
11:50 PM
Oct 19
54 °FPassing clouds.8 mph94%29.36 "Hg4 mi
11:20 PM54 °FLow clouds.14 mph94%29.36 "Hg4 mi
10:50 PM54 °FPassing clouds.12 mph100%29.39 "Hg4 mi
10:24 PM54 °FPassing clouds.13 mph100%29.39 "Hg4 mi
9:50 PM55 °FPassing clouds.12 mph94%29.39 "Hg4 mi
9:20 PM55 °FPassing clouds.15 mph94%29.42 "Hg4 mi
8:50 PM55 °FPassing clouds.14 mph94%29.42 "Hg4 mi
8:20 PM55 °FPassing clouds.15 mph94%29.42 "Hg4 mi
7:50 PM55 °FPassing clouds.12 mph94%29.42 "Hg4 mi
7:20 PM54 °FFog.9 mph100%29.45 "Hg3 mi
6:50 PM55 °FFog.15 mph94%29.45 "Hg3 mi
6:20 PM55 °FFog.13 mph94%29.45 "Hg2 mi
5:50 PM55 °FFog.13 mph94%29.47 "Hg0 mi
5:20 PM55 °FFog.12 mph94%29.47 "Hg1 mi
4:50 PM55 °FFog.12 mph100%29.50 "Hg1 mi
4:20 PM55 °FFog.13 mph94%29.50 "Hg2 mi
3:50 PM55 °FPartly sunny.10 mph100%29.53 "Hg4 mi
3:20 PM55 °FPartly sunny.12 mph100%29.53 "Hg3 mi
2:50 PM55 °FPartly sunny.12 mph94%29.53 "Hg4 mi
2:20 PM55 °FPartly sunny.9 mph94%29.56 "Hg4 mi
1:50 PM55 °FPartly sunny.10 mph100%29.56 "Hg4 mi
1:20 PM55 °FPartly sunny.8 mph100%29.59 "Hg4 mi
12:50 PM55 °FFog.10 mph100%29.59 "Hg3 mi
12:20 PM55 °FFog.10 mph100%29.59 "Hg2 mi
11:50 AM55 °FFog.7 mph100%29.62 "Hg3 mi
11:20 AM55 °FFog.9 mph94%29.62 "Hg2 mi
10:50 AM55 °FFog.12 mph94%29.62 "Hg1 mi
10:20 AM55 °FFog.10 mph94%29.62 "Hg0 mi
9:50 AM54 °FFog.10 mph100%29.65 "Hg0 mi
9:20 AM55 °FFog.12 mph94%29.65 "Hg0 mi
8:50 AM54 °FFog.12 mph100%29.65 "Hg0 mi
8:20 AM54 °FFog.14 mph100%29.65 "Hg0 mi
7:50 AM55 °FFog.9 mph94%29.65 "Hg1 mi
7:20 AM54 °FFog.12 mph100%29.65 "Hg1 mi
Weather by CustomWeather, © 2014

See weather overviewHow to use our weather pages